User: anonymous   Login
Location: Oshawa
(43.9000°N, 78.8670°W)
Time: 17:03:21
(UTC-04:00)
Language:

Cosmos 1805 Rocket - Orbit

View from above orbital plane
View from above orbital plane
View from above satellite
View from above satellite

Ground track
Ground track

The orbit data is extracted from the following two-line orbital elements,

1 17192U 86097B   15246.84249411 +.00000158 +00000-0 +16272-4 0  9997
2 17192 082.5087 148.7149 0018569 091.3599 335.3237 14.83335832530870
Epoch (UTC): 03 September 2015 20:13:11
Eccentricity: 0.0018569
inclination: 82.5087°
perigee height: 606 km
apogee height: 632 km
right ascension of ascending node: 148.7149°
argument of perigee: 91.3599°
revolutions per day: 14.83335832
mean anomaly at epoch: 335.3237°
orbit number at epoch: 53087

The dashed part of the orbit path shows where the satellite is in the earth's shadow,  

DLR